Date,TemperatureHighF,TemperatureAvgF,TemperatureLowF,DewpointHighF,DewpointAvgF,DewpointLowF,HumidityHigh,HumidityAvg,HumidityLow,PressureMaxIn,PressureMinIn,WindSpeedMaxMPH,WindSpeedAvgMPH,GustSpeedMaxMPH,PrecipitationSumIn
2013-1-1,45,36,32,38,30,23,87,81,68,29.68,29.59,12,0,12,0.08
2013-1-2,34,30,25,23,19,14,74,63,52,29.80,29.68,12,0,12,0.00
2013-1-3,37,30,23,22,17,12,72,57,51,29.91,29.74,18,1,18,0.00
2013-1-4,38,35,32,24,22,20,68,58,52,29.94,29.88,22,3,22,0.00
2013-1-5,44,36,28,29,24,19,76,62,50,29.91,29.74,14,0,14,0.00
2013-1-6,42,38,32,32,26,19,68,60,55,29.94,29.65,22,4,22,0.00
2013-1-7,40,32,24,25,20,15,75,61,53,30.03,29.80,7,0,7,0.00
2013-1-8,50,38,29,34,27,20,77,64,50,29.88,29.80,15,0,15,0.00
2013-1-9,56,48,40,47,39,30,90,73,56,30.09,29.83,15,0,15,0.00
2013-1-10,49,45,40,47,40,33,92,82,69,30.09,29.62,4,0,4,0.12
2013-1-11,64,58,47,56,51,45,97,81,57,29.65,29.47,20,1,20,0.67
2013-1-12,66,62,57,64,60,51,95,91,81,29.65,29.44,12,0,12,0.00
2013-1-13,67,54,35,62,50,29,93,87,79,29.83,29.41,30,3,30,2.01
2013-1-14,35,30,26,29,20,18,78,68,61,30.09,29.83,17,1,17,0.00
2013-1-15,33,29,24,29,22,18,87,76,64,30.00,29.77,14,0,14,0.00
2013-1-16,36,34,32,30,29,28,87,80,75,29.83,29.71,5,0,5,0.00
2013-1-17,44,37,32,32,26,20,77,66,51,30.12,29.80,20,1,20,0.16
2013-1-18,43,35,26,25,20,14,64,55,49,30.24,30.00,10,0,10,0.00
2013-1-19,54,46,38,31,27,24,56,48,40,30.00,29.71,26,3,26,0.00
2013-1-20,48,40,32,32,18,11,57,42,31,29.97,29.77,21,2,21,0.00
2013-1-21,32,25,17,11,5,-1,44,41,36,30.06,29.88,24,6,24,0.00
2013-1-22,23,17,12,1,-2,-6,44,41,35,30.18,30.03,18,4,18,0.00
2013-1-23,37,27,18,16,8,0,47,43,41,30.12,29.85,15,0,15,0.00
2013-1-24,32,26,21,15,4,-10,50,38,18,30.33,29.91,25,2,25,0.00
2013-1-25,31,28,27,21,14,2,71,56,33,30.15,29.85,12,0,12,0.00
2013-1-26,38,30,25,21,18,14,75,61,46,30.18,29.94,12,0,12,0.00
2013-1-27,43,36,27,39,24,13,85,62,51,30.18,29.91,4,0,4,0.08
2013-1-28,56,51,43,52,46,39,94,86,73,29.94,29.85,18,1,18,0.20
2013-1-29,66,60,55,60,55,50,90,84,80,29.85,29.41,19,1,19,0.00
2013-1-30,68,54,34,61,47,21,88,77,57,29.53,29.18,30,6,30,0.91
2013-1-31,36,32,19,26,18,5,77,56,49,29.94,29.50,34,11,34,0.00
2013-2-1,22,17,10,8,2,-5,54,51,48,30.27,29.94,30,5,30,0.00
2013-2-2,35,30,22,27,19,8,76,65,54,30.12,29.83,18,1,18,0.04
2013-2-3,33,30,27,23,18,13,74,61,54,29.97,29.80,25,3,25,0.00
2013-2-4,44,34,24,39,25,13,89,68,52,29.94,29.68,18,0,18,0.08
2013-2-5,50,42,35,39,32,27,88,69,52,29.85,29.68,14,0,14,0.00
2013-2-6,44,39,33,31,28,25,77,64,53,30.09,29.85,8,0,8,0.00
2013-2-7,61,46,35,41,33,26,77,61,46,30.00,29.68,8,0,9,0.00
2013-2-8,54,43,38,47,35,26,84,73,52,30.03,29.68,23,7,23,0.08
2013-2-10,53,52,52,50,48,47,88,84,83,29.68,29.65,8,0,8,0.12
2013-2-11,54,49,43,52,33,24,90,55,42,29.94,29.65,31,6,31,0.00
2013-2-12,51,43,35,31,26,22,60,50,41,30.00,29.74,12,0,12,0.00
2013-2-13,43,39,34,35,28,24,81,64,51,29.77,29.62,15,1,15,0.04
2013-2-14,56,45,37,38,33,28,81,65,46,29.85,29.71,27,2,27,0.04
2013-2-15,45,40,33,32,26,16,68,56,44,30.03,29.85,21,3,21,0.00
2013-2-16,34,30,27,16,13,8,58,48,40,30.00,29.91,24,4,24,0.00
2013-2-17,39,31,23,17,12,8,54,46,40,30.09,29.97,15,0,15,0.00
2013-2-18,60,45,31,41,26,12,72,48,38,30.03,29.62,31,3,31,0.12
2013-2-19,50,37,26,42,24,10,82,58,45,30.03,29.59,34,10,34,0.08
2013-2-20,33,28,23,15,11,8,52,48,44,30.18,30.03,20,3,20,0.00
2013-2-21,39,31,21,28,16,8,73,55,45,30.18,29.85,23,0,23,0.16
2013-2-22,49,41,35,40,34,27,93,76,63,29.85,29.71,21,2,21,0.31
2013-2-23,47,40,34,32,24,19,73,53,41,29.88,29.77,15,1,15,0.00
2013-2-24,47,37,30,28,22,16,64,53,45,30.00,29.83,11,0,11,0.00
2013-2-25,50,40,31,27,23,19,62,50,39,29.97,29.65,18,0,18,0.00
2013-2-26,50,45,42,48,37,22,94,74,41,29.65,29.23,23,0,23,0.51
2013-2-27,43,40,36,37,32,26,81,73,58,29.65,29.44,17,4,17,0.00
2013-2-28,39,36,34,33,30,27,83,78,72,29.85,29.65,24,5,24,0.00
2013-3-1,44,37,35,37,32,30,85,81,75,29.88,29.83,14,0,14,0.08
2013-3-2,35,32,31,31,23,19,85,68,57,29.97,29.88,12,0,12,0.00
2013-3-3,40,34,29,22,18,13,70,55,43,30.00,29.91,17,2,17,0.00
2013-3-4,47,37,25,24,19,12,66,49,39,30.03,29.83,0,0,0,0.00
2013-3-5,47,41,32,44,33,24,93,74,45,29.83,29.47,26,1,26,0.35
2013-3-6,35,33,32,28,27,26,83,77,74,30.18,29.68,0,0,0,0.16
2013-3-7,40,36,34,30,26,23,77,67,54,30.27,30.15,8,0,8,0.00
2013-3-8,50,41,32,29,25,21,66,53,43,30.33,30.21,14,0,14,0.00
2013-3-9,61,48,35,35,30,22,68,49,37,30.21,29.91,5,0,5,0.00
2013-3-10,69,60,52,43,35,30,53,39,32,29.91,29.71,17,0,17,0.00
2013-3-11,60,52,40,52,43,28,86,72,54,29.83,29.59,32,4,32,0.94
2013-3-12,51,43,37,30,26,22,68,53,41,30.03,29.83,24,6,24,0.00
2013-3-13,40,34,30,31,20,16,72,56,46,30.30,29.97,24,7,24,0.00
2013-3-14,49,36,27,30,21,14,68,53,38,30.33,30.18,15,1,15,0.00
2013-3-15,62,48,35,41,34,27,77,61,45,30.18,29.77,10,0,10,0.00
2013-3-16,69,59,45,48,44,35,72,57,44,30.03,29.68,22,4,22,0.00
2013-3-17,46,39,36,38,34,31,85,80,72,30.15,29.97,9,0,9,0.91
2013-3-18,51,43,37,49,39,33,96,87,65,30.03,29.77,22,2,22,0.83
2013-3-19,48,41,34,34,23,16,77,51,30,30.33,30.03,34,5,34,0.00
2013-3-20,42,36,29,20,16,9,50,43,38,30.33,30.21,25,6,25,0.00
2013-3-21,38,30,23,16,10,5,47,43,38,30.30,30.21,21,2,21,0.00
2013-3-22,48,36,24,23,16,9,62,45,35,30.36,30.27,5,0,5,0.00
2013-3-23,57,47,40,30,24,18,47,39,35,30.33,30.15,11,0,11,0.00
2013-3-24,48,42,39,37,30,22,84,64,37,30.15,29.77,22,0,22,0.47
2013-3-25,39,35,33,33,29,26,81,77,72,30.39,29.85,24,8,24,0.00
2013-3-26,43,38,34,31,27,22,83,66,49,30.68,30.39,20,4,20,0.00
2013-3-27,48,40,32,27,23,20,64,50,41,30.77,30.68,16,1,16,0.00
2013-3-28,55,43,32,30,24,19,63,48,36,30.86,30.74,14,0,14,0.00
2013-3-29,61,48,36,40,31,23,69,53,43,30.80,30.68,11,0,11,0.00
2013-3-30,65,51,39,45,37,31,86,61,38,30.74,30.45,9,0,9,0.00
2013-3-31,62,55,50,49,44,38,86,68,46,30.47,30.33,20,1,20,0.04
2013-4-1,55,49,43,42,29,19,68,48,30,30.68,30.36,17,3,17,0.00
2013-4-2,52,43,33,25,18,9,50,37,21,30.86,30.68,15,1,15,0.00
2013-4-3,55,44,32,24,18,10,52,36,21,30.98,30.83,15,0,15,0.00
2013-4-4,59,49,40,29,22,14,38,34,29,30.86,30.59,8,0,8,0.00
2013-4-5,65,52,37,36,29,23,67,43,30,30.74,30.56,20,1,20,0.00
2013-4-6,74,59,44,43,34,25,55,40,30,30.77,30.50,15,0,15,0.00
2013-4-7,76,68,61,53,43,36,68,42,33,30.59,30.50,15,1,15,0.00
2013-4-8,74,67,59,55,51,46,71,58,48,30.62,30.50,20,1,20,0.00
2013-4-9,83,72,62,60,55,49,72,57,42,30.71,30.56,21,2,21,0.00
2013-4-10,86,76,67,63,58,54,71,56,43,30.62,30.42,21,2,21,0.00
2013-4-11,76,68,59,63,59,52,88,75,47,30.47,30.21,20,0,20,1.02
2013-4-12,59,50,44,54,36,30,85,59,47,30.65,30.27,24,3,24,0.04
2013-4-13,64,51,40,39,33,29,67,50,36,30.77,30.65,23,2,23,0.00
2013-4-14,76,60,45,48,41,34,72,51,35,30.74,30.56,18,0,18,0.00
2013-4-15,76,67,60,55,51,44,69,56,45,30.74,30.62,12,0,12,0.00
2013-4-16,83,70,63,67,60,52,81,69,52,30.89,30.68,18,1,18,0.08
2013-4-17,78,68,62,69,62,59,92,83,69,30.92,30.59,4,0,4,0.20
2013-4-18,84,74,65,64,58,52,85,61,39,30.71,30.42,21,1,21,0.00
2013-4-19,76,51,44,61,37,28,77,60,44,30.89,30.36,23,5,23,0.94
2013-4-20,58,48,40,33,30,25,72,51,34,31.01,30.89,18,2,18,0.00
2013-4-21,66,53,40,37,31,24,54,44,33,31.01,31.01,12,0,12,0.00
2013-4-22,74,59,44,46,37,30,61,46,34,31.01,31.01,10,0,10,0.00
2013-4-23,72,63,51,52,46,39,73,55,44,31.01,30.86,14,0,14,0.00
2013-4-24,68,54,44,55,43,32,81,67,51,31.01,30.80,21,3,21,0.71
2013-4-25,63,50,38,41,35,29,82,59,38,31.01,31.01,20,1,20,0.00
2013-4-26,68,56,41,40,35,29,72,47,33,17.72,17.72,4,0,4,0.00
2013-4-27,62,58,54,54,47,38,84,68,48,17.72,17.72,4,0,4,0.00
2013-4-28,67,61,57,60,55,53,91,82,68,17.72,17.72,15,0,15,0.04
2013-4-29,72,64,58,56,53,50,85,70,49,17.72,17.72,7,0,7,0.00
2013-4-30,84,68,52,59,52,45,86,60,35,17.72,17.72,8,0,8,0.00
2013-5-1,86,72,58,60,55,50,80,55,37,17.72,17.72,8,0,8,0.00
2013-5-2,80,73,65,58,54,51,65,53,42,17.72,17.72,4,0,4,0.00
2013-5-3,82,72,66,62,57,54,77,61,42,29.41,17.72,15,0,15,0.08
2013-5-4,68,62,56,60,51,44,87,68,50,29.44,29.35,9,0,9,0.35
2013-5-5,57,56,54,54,52,49,90,86,80,29.41,29.29,18,0,18,0.67
2013-5-6,70,60,55,59,54,52,90,81,58,29.38,29.26,13,0,13,0.16
2013-5-7,75,66,58,59,55,52,93,71,46,29.44,29.35,12,0,12,0.04
2013-5-8,80,69,59,61,56,52,90,66,41,29.47,29.38,17,0,17,0.00
2013-5-9,84,71,62,63,58,55,83,65,40,29.50,29.41,15,0,15,0.00
2013-5-10,71,68,66,65,62,58,90,82,67,29.41,29.29,8,0,8,0.75
2013-5-11,68,60,55,63,52,37,90,74,50,29.47,29.32,18,1,18,0.16
2013-5-12,63,55,47,37,33,30,56,44,34,29.59,29.47,21,2,21,0.16
2013-5-13,69,58,45,38,35,30,63,43,30,29.65,29.56,20,1,20,0.00
2013-5-14,86,69,52,59,48,36,61,49,39,29.59,29.35,21,1,21,0.00
2013-5-15,89,79,70,59,56,50,63,46,31,29.44,29.35,21,1,21,0.00
2013-5-16,77,72,68,66,58,47,80,62,40,29.44,29.35,14,0,14,0.00
2013-5-17,80,71,64,68,62,56,91,74,46,29.50,29.41,5,0,5,0.00
2013-5-18,80,74,68,69,65,63,87,75,62,29.50,29.41,4,0,4,0.04
2013-5-19,90,78,66,72,67,62,91,72,49,29.47,29.35,8,0,8,0.00
2013-5-20,90,80,70,73,67,64,83,66,46,29.47,29.32,12,0,12,0.00
2013-5-21,87,78,70,68,64,60,80,63,44,29.41,29.29,23,0,23,0.00
2013-5-22,82,74,69,66,63,61,78,68,53,29.32,29.23,17,0,17,0.00
2013-5-23,71,67,58,64,57,47,83,70,55,29.56,29.26,27,2,27,0.00
2013-5-24,70,60,52,48,44,40,80,58,35,29.77,29.56,17,1,17,0.00
2013-5-25,72,61,50,51,44,41,81,56,37,29.80,29.62,8,0,8,0.00
2013-5-26,78,66,58,55,52,46,84,61,41,29.74,29.59,4,0,4,0.00
2013-5-27,90,76,63,61,56,51,72,51,34,29.62,29.41,12,0,12,0.00
2013-5-28,91,81,73,66,59,55,62,49,37,29.50,29.38,16,1,16,0.00
2013-5-29,91,81,71,65,61,56,70,52,38,29.56,29.44,11,0,11,0.00
2013-5-30,91,82,72,71,65,61,71,58,45,29.59,29.47,7,0,7,0.00
2013-5-31,82,78,75,74,68,63,84,72,59,29.50,29.38,16,0,16,0.08
2013-6-1,78,74,69,70,67,62,86,79,69,29.44,29.26,20,0,20,0.08
2013-6-2,81,73,68,66,61,57,86,69,47,29.41,29.32,17,1,17,0.00
2013-6-3,74,68,62,60,55,49,79,64,47,29.50,29.38,14,0,14,0.00
2013-6-4,81,69,56,58,54,50,85,62,42,29.56,29.47,14,0,14,0.00
2013-6-5,88,75,62,64,57,52,70,56,39,29.50,29.29,10,0,10,0.00
2013-6-6,82,76,71,69,66,61,89,72,53,29.32,29.23,12,0,12,0.04
2013-6-7,82,73,67,64,61,55,83,66,44,29.32,29.23,15,0,15,0.00
2013-6-8,88,76,68,66,61,57,80,61,42,29.47,29.32,8,0,8,0.00
2013-6-9,84,76,69,71,64,61,78,66,49,29.50,29.38,4,0,4,0.00
2013-6-10,80,74,69,67,64,61,90,72,53,29.35,29.26,19,1,19,0.16
2013-6-11,91,79,67,67,64,61,82,62,41,29.47,29.35,12,0,12,0.00
2013-6-12,96,86,75,76,71,66,86,64,44,29.44,29.23,17,1,17,0.00
2013-6-13,87,80,72,73,64,49,77,59,41,29.41,29.15,32,4,32,0.00
2013-6-14,87,74,62,61,56,49,72,54,38,29.53,29.38,12,0,12,0.00
2013-6-15,92,79,66,64,61,58,81,55,36,29.59,29.41,12,0,12,0.00
2013-6-16,82,76,71,73,67,60,86,73,49,29.50,29.41,12,0,12,0.79
2013-6-17,90,75,69,74,68,59,92,79,45,29.44,29.35,14,0,14,0.43
2013-6-18,88,76,67,68,64,54,91,71,42,29.44,29.29,30,0,30,0.00
2013-6-19,88,76,67,66,62,59,86,64,41,29.56,29.41,8,0,8,0.00
2013-6-20,92,80,67,67,62,58,82,57,37,29.65,29.56,4,0,4,0.00
2013-6-21,91,79,69,70,64,60,80,61,42,29.65,29.59,4,0,4,0.00
2013-6-22,90,90,90,64,64,64,42,42,42,29.62,29.62,0,0,0,0.00
2013-6-23,90,83,75,73,67,64,83,62,42,29.62,29.50,20,0,20,0.20
2013-6-24,82,76,71,72,70,67,89,81,70,29.62,29.50,11,0,11,0.00
2013-6-25,96,82,70,76,71,67,91,71,41,29.53,29.38,14,0,14,0.00
2013-6-26,86,77,72,76,70,65,89,79,60,29.44,29.21,33,0,33,2.48
2013-6-27,90,79,71,77,72,68,93,81,59,29.29,29.21,18,1,18,0.00
2013-6-28,89,82,74,71,63,56,76,56,37,29.23,29.09,23,3,23,0.00
2013-6-29,85,76,70,67,63,57,83,64,47,29.15,29.06,20,1,20,0.87
2013-6-30,85,74,68,67,65,62,89,77,50,29.29,29.12,18,0,18,0.20
2013-7-1,82,71,67,69,65,62,92,83,61,29.35,29.26,12,0,12,0.24
2013-7-2,84,74,64,72,65,61,92,77,50,29.47,29.32,9,0,9,0.28
2013-7-3,86,75,67,71,67,63,88,76,52,29.56,29.44,7,0,7,0.04
2013-7-4,74,72,70,70,69,67,92,90,87,29.59,29.50,0,0,0,0.59
2013-7-5,81,74,68,72,69,66,93,85,72,29.59,29.50,0,0,0,0.00
2013-7-6,76,72,70,70,68,66,91,85,75,29.56,29.53,4,0,4,0.63
2013-7-7,90,78,68,72,66,62,92,71,44,29.59,29.50,10,0,10,0.00
2013-7-8,91,81,71,75,69,66,89,68,46,29.62,29.50,13,0,13,0.00
2013-7-9,94,86,77,76,72,70,83,66,49,29.56,29.44,8,0,8,0.00
2013-7-10,91,82,75,79,73,67,84,76,62,29.47,29.32,44,0,44,0.28
2013-7-11,84,77,71,70,65,58,92,69,42,29.47,29.38,17,1,17,0.00
2013-7-12,86,75,64,62,58,55,82,58,39,29.56,29.47,14,0,14,0.00
2013-7-13,86,76,66,69,62,58,82,64,46,29.56,29.47,11,0,11,0.00
2013-7-14,94,81,70,75,69,64,87,68,44,29.65,29.53,3,0,3,0.51
2013-7-15,95,84,74,75,71,67,87,68,42,29.77,29.65,4,0,4,0.00
2013-7-16,96,86,76,76,72,68,87,65,43,29.80,29.71,7,0,7,0.00
2013-7-17,96,86,77,77,74,72,87,69,47,29.77,29.65,10,0,10,0.00
2013-7-18,95,86,79,78,75,68,87,70,48,29.68,29.53,4,0,4,0.00
2013-7-19,95,86,77,77,72,67,82,65,45,29.53,29.41,14,0,14,0.00
2013-7-20,95,84,78,75,71,65,82,66,45,29.44,29.35,18,0,18,0.04
2013-7-21,92,81,75,71,69,61,85,67,42,29.44,29.35,14,0,14,0.04
2013-7-22,84,78,74,76,72,70,91,83,70,29.38,29.23,15,0,15,1.10
2013-7-23,91,81,74,78,72,70,92,77,55,29.32,29.23,14,0,14,0.00
2013-7-24,82,74,65,72,60,56,76,64,45,29.44,29.29,15,1,15,0.00
2013-7-25,82,72,62,62,58,55,82,63,42,29.53,29.41,14,0,14,0.00
2013-7-26,86,75,64,64,60,58,85,62,42,29.56,29.44,12,0,12,0.00
2013-7-27,80,73,69,66,62,53,87,70,46,29.44,29.35,18,1,18,0.08
2013-7-28,80,70,59,54,51,49,72,53,39,29.53,29.41,14,0,14,0.00
2013-7-29,84,72,61,62,56,51,83,59,39,29.65,29.50,14,0,14,0.00
2013-7-30,83,72,66,67,62,58,85,73,49,29.65,29.56,4,0,4,0.08
2013-7-31,77,72,68,69,67,64,89,83,77,29.59,29.41,4,0,4,0.04
2013-8-1,86,76,70,69,64,57,92,70,42,29.50,29.41,18,1,18,0.00
2013-8-2,86,77,66,66,62,60,87,62,42,29.50,29.44,14,0,14,0.00
2013-8-3,88,79,73,72,68,63,85,69,56,29.50,29.41,17,1,17,0.00
2013-8-4,84,74,66,67,57,52,77,57,38,29.62,29.50,14,0,14,0.00
2013-8-5,87,75,62,61,57,55,82,57,37,29.56,29.41,4,0,4,0.00
2013-8-6,88,79,72,73,67,57,79,66,50,29.41,29.35,8,0,8,0.00
2013-8-7,87,81,76,76,73,71,90,78,65,29.41,29.35,11,0,11,0.00
2013-8-8,92,83,76,76,73,71,89,74,53,29.44,29.35,14,0,14,0.00
2013-8-9,87,81,76,76,73,67,90,79,53,29.50,29.38,14,0,14,0.16
2013-8-10,86,80,75,76,73,70,89,80,64,29.59,29.47,3,0,3,0.04
2013-8-11,89,81,75,73,69,63,88,68,46,29.59,29.50,14,1,14,0.00
2013-8-12,83,76,70,76,70,64,89,81,68,29.56,29.35,4,0,4,0.20
2013-8-13,81,75,68,71,66,52,93,75,50,29.50,29.32,18,1,18,0.08
2013-8-14,77,66,57,55,51,48,80,59,40,29.62,29.50,13,0,13,0.00
2013-8-15,79,67,56,56,52,49,82,61,42,30.74,29.59,12,0,12,0.00
2013-8-16,82,71,59,60,56,53,83,61,41,30.77,30.71,11,0,11,0.00
2013-8-17,85,75,66,63,60,55,76,60,42,30.77,30.68,10,0,10,0.00
2013-8-18,86,76,66,66,61,58,82,63,43,30.77,30.68,8,0,8,0.00
2013-8-19,88,78,68,67,63,59,86,63,40,30.74,30.65,8,0,8,0.00
2013-8-20,91,78,68,72,67,62,86,71,48,30.77,30.68,5,0,5,0.20
2013-8-21,92,80,71,75,69,65,92,73,45,30.77,30.65,12,0,12,0.00
2013-8-22,92,80,73,73,70,64,89,71,40,30.71,30.62,20,1,20,0.00
2013-8-23,89,79,72,70,67,62,90,70,42,30.71,30.62,12,0,12,0.00
2013-8-24,91,79,68,67,61,54,84,58,30,30.86,30.71,14,0,14,0.00
2013-8-25,90,78,66,67,61,58,82,58,35,30.92,30.80,8,0,8,0.00
2013-8-26,90,81,72,71,68,65,82,66,45,30.86,30.71,14,0,14,0.00
2013-8-27,93,83,75,75,72,70,85,70,49,30.71,30.59,14,0,14,0.00
2013-8-28,94,85,76,74,69,64,85,62,39,30.62,30.53,21,2,21,0.00
2013-8-29,93,85,77,75,69,64,86,61,40,30.65,30.56,7,0,7,0.00
2013-8-30,94,84,73,74,69,65,87,63,39,30.59,30.45,14,0,14,0.00
2013-8-31,96,84,75,87,73,66,92,70,47,30.53,30.39,23,0,23,0.91
2013-9-1,89,79,71,75,71,68,91,77,58,30.50,30.39,13,0,13,0.24
2013-9-2,86,80,73,75,70,64,86,73,59,30.50,30.42,8,0,8,0.00
2013-9-3,80,73,65,64,59,52,82,63,43,30.65,30.50,15,0,15,0.00
2013-9-4,83,72,61,61,58,55,87,64,41,30.77,30.65,8,0,8,0.00
2013-9-5,85,75,65,65,61,58,87,65,42,30.83,30.74,12,0,12,0.00
2013-9-6,86,76,66,65,61,57,80,63,43,30.83,30.68,8,0,8,0.00
2013-9-7,88,77,66,67,64,60,83,64,45,30.71,30.59,11,0,11,0.00
2013-9-8,89,80,74,76,70,66,89,74,48,30.62,30.56,9,0,9,0.31
2013-9-9,92,81,71,73,70,67,89,71,46,30.68,30.59,10,0,10,0.00
2013-9-10,94,83,76,76,72,68,83,69,47,30.77,30.65,14,0,14,0.00
2013-9-11,92,82,74,76,72,69,85,72,52,30.80,30.68,8,0,8,0.00
2013-9-12,81,78,74,73,68,62,85,74,55,30.68,30.53,15,1,15,0.00
2013-9-13,74,67,61,63,50,42,79,56,39,30.71,30.56,21,2,21,0.00
2013-9-14,74,62,51,50,46,44,80,58,36,30.80,30.71,10,0,10,0.00
2013-9-15,80,66,52,59,52,44,82,61,43,30.77,30.68,13,0,13,0.00
2013-9-16,75,71,66,62,60,56,81,68,59,30.86,30.68,14,0,14,0.00
2013-9-17,78,68,58,57,53,51,80,62,41,30.92,30.77,15,0,15,0.00
2013-9-18,79,70,63,69,63,55,86,77,67,30.80,30.71,8,0,8,0.00
2013-9-19,81,71,68,74,67,65,93,88,73,30.77,30.65,5,0,5,0.12
2013-9-20,77,74,70,72,70,67,89,87,84,30.50,30.47,5,0,5,1.26
2013-9-21,71,70,62,67,65,50,88,85,65,30.53,30.47,0,0,0,0.51
2013-9-22,71,62,54,52,49,46,82,62,44,30.65,30.50,14,0,14,0.00
2013-9-23,73,62,52,53,49,45,82,64,44,30.71,30.62,8,0,8,0.00
2013-9-24,78,65,55,62,55,48,82,70,53,30.68,30.53,0,0,0,0.00
2013-9-25,77,70,65,64,61,59,85,74,56,30.56,30.47,12,0,12,0.00
2013-9-26,77,68,58,60,54,50,86,64,41,30.71,30.56,7,0,7,0.00
2013-9-27,79,68,58,62,55,52,87,65,41,30.83,30.71,4,0,4,0.00
2013-9-28,81,69,58,63,56,52,84,66,43,30.83,30.71,7,0,7,0.00
2013-9-29,70,65,62,62,59,57,89,82,67,30.74,30.65,5,0,5,0.04
2013-9-30,77,69,64,64,62,61,92,79,61,30.68,30.62,4,0,4,0.00
2013-10-1,79,71,63,66,62,58,91,75,54,30.74,30.68,8,0,8,0.00
2013-10-2,80,72,67,72,68,62,92,86,74,30.77,30.71,3,0,3,0.04
2013-10-3,82,75,70,70,68,66,94,82,61,30.77,30.65,10,0,10,0.08
2013-10-4,84,75,68,71,68,64,90,78,61,30.74,30.68,7,0,7,0.00
2013-10-5,75,72,70,71,69,67,92,90,84,30.71,30.47,5,0,5,2.80
2013-10-6,70,66,57,69,62,47,94,88,68,30.59,30.47,17,0,17,1.97
2013-10-7,63,57,52,48,45,42,75,64,49,30.83,30.53,17,1,17,0.00
2013-10-8,67,57,48,50,46,42,89,67,45,30.89,30.80,11,0,11,0.00
2013-10-9,71,60,50,55,50,44,85,70,51,30.86,30.80,5,0,5,0.00
2013-10-10,72,62,52,54,50,47,86,68,43,30.86,30.50,5,0,5,0.00
2013-10-11,73,62,53,55,51,48,85,67,44,30.77,30.68,5,0,5,0.00
2013-10-12,75,64,54,59,54,48,91,72,49,30.80,30.68,11,0,11,0.00
2013-10-13,74,67,61,62,56,43,89,70,47,30.95,30.77,15,0,15,0.00
2013-10-14,70,61,51,52,47,42,74,61,46,30.98,30.83,8,0,8,0.00
2013-10-15,71,64,58,63,58,51,93,82,69,30.83,30.62,7,0,7,0.00
2013-10-16,67,64,57,63,56,47,91,75,54,30.65,30.59,11,0,11,0.00
2013-10-17,60,54,50,51,46,43,84,73,56,30.68,30.59,19,0,19,0.04
2013-10-18,65,55,47,51,45,42,90,70,46,30.71,30.62,12,0,12,0.00
2013-10-19,56,52,47,48,44,37,87,76,57,30.71,30.53,14,0,14,0.16
2013-10-20,61,51,42,45,40,37,85,67,48,30.74,30.68,12,0,12,0.00
2013-10-21,66,56,46,46,42,39,76,62,43,30.71,30.59,17,0,17,0.00
2013-10-22,57,51,43,44,35,30,71,55,40,30.74,30.50,18,0,18,0.00
2013-10-23,53,47,42,42,34,29,74,61,47,30.74,30.45,23,3,23,0.00
2013-10-24,48,43,39,33,28,24,67,56,50,30.98,30.74,17,2,17,0.00
2013-10-25,49,40,33,28,26,24,73,56,41,31.01,30.98,7,0,7,0.00
2013-10-26,56,45,35,36,31,25,68,58,47,30.98,30.65,18,0,18,0.00
2013-10-27,58,48,38,38,34,31,81,61,39,30.80,30.71,8,0,8,0.00
2013-10-28,61,49,39,39,35,32,77,60,41,30.95,30.77,7,0,7,0.00
2013-10-29,57,50,42,54,44,34,94,80,57,31.01,30.83,4,0,4,0.12
2013-10-30,69,62,56,67,60,54,96,93,85,30.83,30.71,5,0,5,0.79
2013-10-31,67,64,61,65,60,56,95,86,76,30.71,30.15,34,1,34,0.87
2013-11-1,66,60,54,56,47,41,83,65,44,30.47,30.24,23,2,23,0.00
2013-11-2,57,52,47,44,39,32,77,62,48,30.80,30.47,19,1,19,0.00
2013-11-3,55,47,39,40,34,32,80,62,46,31.01,30.80,8,0,8,0.00
2013-11-4,60,52,43,44,39,35,76,61,47,31.01,30.95,7,0,7,0.00
2013-11-5,63,57,53,44,42,40,69,58,46,31.01,30.89,4,0,4,0.00
2013-11-6,65,58,48,60,50,40,92,77,61,30.89,30.68,21,0,21,0.20
2013-11-7,50,46,40,43,32,24,83,60,40,30.98,30.77,18,1,18,0.04
2013-11-8,52,44,36,31,28,26,72,54,41,31.01,30.92,11,0,11,0.00
2013-11-9,61,50,38,36,31,25,59,48,38,30.92,30.77,18,1,18,0.00
2013-11-10,55,50,42,40,32,24,72,50,36,31.01,30.83,14,1,14,0.00
2013-11-11,60,48,36,41,30,24,77,53,31,31.01,30.77,23,1,23,0.00
2013-11-12,45,35,31,38,21,16,79,56,42,31.01,30.92,26,2,26,0.00
2013-11-13,41,34,26,22,19,16,67,54,42,31.01,31.01,11,0,11,0.00
2013-11-14,52,42,32,26,21,18,57,45,30,31.01,30.86,15,0,15,0.00
2013-11-15,54,47,40,45,30,19,84,53,38,30.89,30.80,8,0,8,0.04
2013-11-16,62,55,50,57,52,45,91,88,83,30.83,30.59,10,0,10,0.00
2013-11-17,66,62,57,64,57,41,95,85,47,30.62,30.30,27,1,27,2.87
2013-11-18,57,51,44,42,34,25,70,53,40,30.92,30.56,25,5,25,0.00
2013-11-19,46,40,35,28,25,22,65,54,48,31.01,30.92,14,0,14,0.00
2013-11-20,52,42,32,33,28,22,70,58,47,30.98,30.86,8,0,8,0.00
2013-11-21,60,52,43,52,41,30,87,67,56,31.01,30.86,0,0,2,0.08
2013-11-22,57,52,42,56,48,32,95,84,67,31.01,30.86,23,2,23,0.00
2013-11-23,42,36,26,32,21,7,72,55,39,31.01,31.01,24,5,24,0.00
2013-11-24,30,26,22,12,9,6,54,48,43,31.01,31.01,15,0,15,0.00
2013-11-25,41,34,26,30,18,11,73,50,41,31.01,30.89,15,0,15,0.00
2013-11-26,38,36,36,33,30,24,85,77,63,30.92,30.65,15,0,15,0.00
2013-11-27,36,30,25,24,16,8,68,56,49,31.01,30.65,23,6,23,0.00
2013-11-28,39,30,22,18,13,8,57,49,42,31.01,30.98,15,0,15,0.04
2013-11-29,42,34,25,24,19,13,63,54,46,31.01,31.01,3,0,3,0.00
2013-11-30,52,39,29,31,24,18,71,55,42,31.01,30.89,8,0,8,0.00
2013-12-1,56,50,44,36,31,25,54,48,46,30.92,30.68,11,0,11,0.00
2013-12-2,55,49,41,40,36,31,71,60,52,30.68,30.47,5,0,5,0.00
2013-12-3,58,52,44,51,45,36,94,78,65,30.59,30.47,3,0,3,0.00
2013-12-4,66,59,52,61,54,46,94,83,71,30.56,30.42,14,0,14,0.00
2013-12-5,67,51,35,62,45,29,91,79,69,30.89,30.50,23,2,23,0.83
2013-12-6,35,30,28,32,26,24,89,86,78,31.01,30.86,7,0,7,0.12
2013-12-7,30,24,19,25,18,11,86,77,69,31.01,31.01,0,0,0,0.00
2013-12-8,35,29,24,32,24,17,90,80,72,31.01,30.77,0,0,0,0.00
2013-12-9,35,32,27,32,25,16,90,75,61,30.98,30.77,0,0,0,0.00
2013-12-10,32,27,24,19,16,14,75,63,54,31.01,30.89,0,0,0,0.00
2013-12-11,36,28,23,23,18,12,74,64,55,31.01,31.01,24,2,24,0.00
2013-12-12,29,24,17,12,9,4,57,51,45,31.01,31.01,11,0,11,0.00
2013-12-13,39,33,26,30,18,11,79,55,48,31.01,30.86,14,0,14,0.04
2013-12-14,44,38,36,41,34,30,95,88,79,30.86,30.47,17,0,17,0.12
2013-12-15,36,32,30,30,23,20,80,69,62,30.89,30.68,20,4,20,0.00
2013-12-16,45,39,33,33,30,24,76,70,61,30.86,30.74,12,0,12,0.00
2013-12-17,41,36,34,34,27,22,75,69,57,30.95,30.71,18,2,18,0.00
2013-12-18,42,35,29,25,20,16,71,53,41,31.01,30.80,12,0,12,0.00
2013-12-19,58,49,40,42,31,20,58,48,41,30.86,30.71,21,1,21,0.00
2013-12-20,62,57,54,59,48,36,89,72,47,30.74,30.59,17,0,17,0.04
2013-12-21,68,63,60,64,60,58,95,92,86,30.62,30.24,37,1,37,2.44
2013-12-22,63,53,41,60,47,32,91,79,71,30.86,30.36,24,3,24,0.28
2013-12-23,41,35,29,33,22,15,76,61,54,31.01,30.83,20,4,20,0.00
2013-12-24,30,23,18,16,8,4,58,52,47,31.01,31.01,20,3,20,0.00
2013-12-25,39,30,21,21,15,9,59,52,45,31.01,30.98,11,0,11,0.00
2013-12-26,42,38,34,25,22,20,62,54,48,31.01,30.98,20,1,20,0.00
2013-12-27,48,39,31,30,24,20,66,56,47,31.01,31.01,12,0,12,0.00
2013-12-28,49,42,35,33,26,23,65,53,45,31.01,30.77,4,0,4,0.00
2013-12-29,48,42,34,42,35,26,85,77,66,30.86,30.62,24,3,24,0.39
2013-12-30,34,31,28,27,18,13,76,60,51,31.01,30.86,15,2,15,0.00
2013-12-31,39,32,26,22,16,12,56,51,46,31.01,30.95,15,1,15,0.00
2014-1-1,49,39,33,34,24,20,71,53,44,31.01,30.77,15,0,15,0.00
2014-1-2,41,30,16,33,21,4,84,69,52,31.01,30.59,29,6,29,0.16